Location: Sternwarte ZA, Rosenfeld-Brittheim
(48.2889°N, 8.6789°E)
Time: 09:39:39
(UTC+02:00)

ISS - Pass Details

Date: 19 May 2018
Orbit: 402 x 407 km, 51.6° (Epoch: 27 May)

Event Time Altitude Azimuth Distance (km) Brightness Sun altitude
Exits shadow 00:57:21 25° 64° (ENE) 849 -2.1 -21.8°
Drops below altitude 10° 00:58:54 10° 67° (ENE) 1,460 -0.8 -21.8°
Sets 01:00:59 0° 69° (ENE) 2,321 0.2 -21.8°
